Vertical_Velocity
0 -1 0 1 -1 -0 -0 1 -2 -0 -1 -2 -2 -1 1 1 3 1 -0 1 -1 0 0 1 1 0 1 0 1 2 0 0 -0 0 1 0 0 0 1 -0 -1 -1 -2
-1 1 1 -0 -1 1 -0 1 -1 -0 -0 -0 -0 -1 -1 1 1 -1 0 0 -0 -0 -1 -0 1 1 2 2 2 1 2 1 -0 1 2 -1 -2 -0 0 -1 -2 -1 -0
-2 -0 0 0 0 1 1 -1 -1 1 1 1 -0 -1 -0 -0 -1 0 -0 -1 -1 -1 -0 -0 0 0 -1 -1 0 2 1 2 -0 -1 -0 -0 -1 0 5 -2 -1 -0 0
-2 -1 1 0 0 1 0 -0 -1 1 1 1 -1 0 1 1 1 1 -1 -1 -0 -1 -1 -0 -0 0 -0 -1 1 0 -0 0 1 -1 -0 0 -1 -2 0 0 1 -0 1
-1 1 1 -0 -0 0 1 -1 -0 1 1 0 -0 1 1 0 1 -0 -0 0 -1 -1 0 1 -1 0 0 0 1 -2 1 -1 1 -1 0 1 -1 -1 -2 0 0 1 1
-1 0 1 -0 -0 1 0 -0 -0 -0 -2 -0 -0 -1 -2 -2 -1 -0 -1 -2 1 -1 0 -1 -2 -0 -2 -0 1 -2 -1 -1 -0 1 -0 -0 -0 -1 0 -0 1 0 2
1 -1 -1 -0 1 0 -1 -0 -1 -0 -2 -2 -1 -0 -1 -2 -2 -2 -1 -1 -1 1 -1 -0 1 0 -1 -1 4 -1 3 -1 -0 -1 -0 1 3 1 0 -0 1 0 0
0 0 -0 1 0 2 -2 0 -2 -1 -1 -2 -0 -0 1 0 -1 -1 -2 -1 -2 -2 -0 -0 -1 2 -1 -0 1 1 3 -1 -2 -2 -1 0 1 -1 0 -0 -0 -0 1
1 1 1 0 1 -0 -1 -1 -0 1 -2 -2 -1 -1 0 2 -1 -1 -2 -1 -1 -1 0 -0 -0 0 2 -1 2 3 6 3 0 -0 -1 -1 0 -1 -1 0 0 -1 -0
0 -0 -0 1 1 -2 -0 -0 -1 2 -2 0 -1 1 -1 -1 1 -1 -0 -2 -1 -0 1 -2 -1 -0 1 -1 -2 -1 3 0 -0 -0 -1 -1 -1 -1 -1 -1 -1 -1 -0
1 -2 -0 0 1 -2 2 -1 -1 1 -2 -1 -0 -1 -1 -0 1 1 -1 -1 -0 -1 -2 -0 -1 0 -2 3 2 -1 -1 1 1 0 -1 -2 -2 -1 -1 -1 -0 -1 -1
-0 -0 -1 0 -0 -1 3 -2 -0 -1 1 -0 1 -1 -2 1 -0 -2 -0 -1 -2 2 -1 -2 0 -3 -2 1 1 -0 -1 2 1 -1 -0 1 3 1 -1 -1 -1 -0 -1
1 -0 -1 -0 -1 -2 3 -2 -1 1 1 0 1 -1 -3 0 -0 2 -2 1 -2 -2 -2 -1 -2 -1 1 -5 4 1 -2 -1 0 -1 -1 -1 -0 0 -0 -1 -1 -1 -0
2 0 -1 0 -2 -0 3 -0 -1 -0 -1 -0 -1 1 -2 -2 1 1 -0 -1 3 -0 -0 1 -1 -1 0 -2 -2 4 -1 -1 -1 1 -2 -1 -0 -2 -2 -1 -1 -2 -3
1 1 -0 -1 -1 -1 3 0 -0 3 1 4 -2 1 -3 -1 1 -2 -0 1 -0 -0 -1 1 -2 -3 -1 3 1 2 1 0 -0 -1 -0 -2 -1 -3 -1 -1 -1 1 1
1 2 1 -1 -0 1 -0 0 0 3 -1 3 -2 1 -0 -1 2 -3 -1 0 1 -0 -3 -2 0 0 -1 5 -2 1 -1 -2 1 1 -0 -2 0 -1 -0 -3 -3 -2 1
-1 2 1 0 -1 2 -0 -2 -2 2 1 2 1 -2 -3 1 -2 1 1 0 -0 0 2 -1 1 -1 0 -1 1 -3 -1 0 -2 -1 2 1 1 1 0 -2 -3 -2 -2
3 0 1 2 -2 1 0 -2 0 1 -5 5 2 -1 0 1 -4 -0 1 -0 -0 -1 3 2 -2 -0 2 -1 -0 1 1 2 3 -1 1 -3 0 -3 -1 -1 0 1 1
-0 -0 1 2 0 1 -1 -0 -1 1 1 2 2 4 0 -2 1 2 -2 -2 -2 2 7 1 -0 -4 -3 -0 -2 3 -3 -2 0 0 1 -3 1 -1 -1 -3 -4 1 -1
-1 -3 2 0 1 0 -1 -1 1 2 3 3 -1 -1 2 1 1 1 0 -0 -1 0 -3 -2 -4 -1 -1 -1 -0 1 -3 -2 -0 -0 0 2 -1 0 0 -0 0 -1 1
-1 -2 0 4 3 1 2 -1 0 -0 0 0 0 1 1 1 -1 -0 -0 -1 -2 -1 1 2 2 3 1 2 -1 -1 3 2 -1 -1 -0 -1 1 -0 -2 1 -1 1 2
-4 -4 -0 2 -0 -3 -0 1 2 1 1 0 0 -2 1 -0 -0 0 0 -0 -0 -1 2 -1 -0 -2 -4 -2 1 -2 -2 -0 -1 -1 -1 -3 -1 -2 -1 -0 -1 1 -1
-2 -0 0 2 -4 -5 -0 1 1 2 0 0 0 -0 0 -0 -1 -1 -0 -1 -1 -1 -2 -0 -1 0 1 0 -3 2 1 0 0 1 3 1 -3 -1 -3 1 0 -1 -1
0 -2 -4 1 -0 -2 -2 -0 -1 -2 0 -1 -2 -1 0 1 -1 -0 -1 -1 -1 -1 -0 -0 0 -0 -1 -2 -1 -1 -0 -2 0 2 -0 -6 -2 -1 -1 -1 1 -0 2
5 1 -3 -4 0 -1 -1 -1 -0 -0 0 1 -1 1 -0 1 0 -0 -1 -1 -2 -1 -1 1 1 0 -0 -0 -1 -1 -1 -0 1 1 -3 -0 3 1 -1 1 0 1 1
-8 0 -2 0 0 0 -1 -0 -0 0 1 -0 2 -1 -1 -0 -0 1 0 -0 0 0 -1 -0 -1 -0 -0 1 -1 -2 -1 -3 -1 0 3 -1 -2 1 -3 -0 -0 1 0
Height
5897 5896 5896 5895 5896 5895 5896 5896 5896 5895 5896 5897 5898 5899 5901 5902 5903 5902 5902 5903 5904 5905 5906 5906 5906 5906 5905 5905 5905 5904 5903 5902 5902 5900 5899 5901 5902 5903 5905 5906 5908 5909 5910
5898 5897 5896 5896 5897 5898 5898 5898 5898 5897 5898 5899 5900 5901 5902 5903 5903 5903 5904 5905 5906 5907 5906 5906 5907 5907 5906 5906 5905 5904 5903 5903 5902 5902 5901 5901 5902 5904 5906 5908 5909 5910 5910
5899 5899 5899 5899 5899 5899 5900 5900 5899 5899 5900 5902 5903 5904 5904 5905 5905 5906 5906 5907 5907 5908 5907 5907 5907 5906 5905 5904 5904 5903 5903 5903 5903 5902 5902 5903 5903 5905 5907 5909 5909 5911 5911
5900 5900 5900 5901 5901 5901 5901 5902 5901 5901 5903 5905 5905 5905 5906 5906 5907 5908 5908 5908 5907 5908 5908 5908 5907 5905 5904 5903 5902 5903 5903 5904 5904 5904 5904 5905 5906 5908 5910 5910 5911 5912 5912
5901 5901 5901 5902 5902 5902 5903 5903 5903 5903 5904 5905 5906 5907 5908 5909 5909 5910 5910 5910 5909 5910 5909 5909 5907 5905 5903 5902 5901 5902 5903 5905 5905 5905 5906 5908 5908 5910 5911 5912 5912 5913 5913
5902 5902 5902 5903 5903 5904 5904 5904 5904 5904 5905 5906 5907 5909 5910 5910 5911 5912 5913 5913 5914 5913 5911 5911 5909 5906 5902 5900 5900 5902 5904 5905 5906 5907 5908 5909 5910 5911 5912 5913 5913 5913 5913
5902 5903 5904 5905 5905 5905 5906 5905 5906 5907 5907 5907 5909 5911 5912 5914 5914 5915 5916 5916 5916 5915 5914 5913 5911 5908 5903 5900 5900 5902 5904 5906 5907 5908 5909 5911 5912 5913 5913 5914 5914 5914 5913
5903 5904 5905 5906 5906 5906 5907 5906 5908 5909 5908 5909 5911 5914 5916 5917 5917 5918 5917 5917 5917 5916 5915 5914 5914 5912 5906 5904 5906 5907 5908 5909 5910 5911 5912 5913 5913 5914 5914 5915 5914 5914 5914
5903 5904 5906 5906 5907 5907 5908 5908 5910 5910 5909 5912 5914 5916 5918 5920 5921 5920 5919 5919 5919 5919 5917 5916 5915 5914 5912 5910 5911 5911 5912 5913 5913 5913 5913 5914 5915 5915 5916 5916 5915 5914 5915
5904 5904 5906 5907 5908 5908 5910 5911 5912 5912 5912 5916 5917 5919 5921 5922 5924 5924 5923 5922 5921 5921 5920 5918 5917 5916 5916 5915 5913 5913 5914 5913 5913 5913 5914 5915 5915 5916 5917 5917 5916 5916 5916
5905 5905 5906 5908 5909 5910 5912 5912 5914 5915 5916 5918 5920 5922 5925 5924 5926 5927 5926 5923 5924 5923 5921 5920 5919 5919 5918 5918 5916 5916 5914 5915 5914 5914 5914 5914 5915 5916 5917 5917 5917 5916 5916
5906 5906 5907 5909 5910 5913 5914 5915 5917 5917 5920 5922 5923 5925 5928 5927 5927 5928 5928 5926 5925 5925 5923 5922 5922 5921 5921 5921 5919 5917 5916 5916 5917 5916 5913 5913 5915 5918 5918 5918 5916 5914 5915
5907 5907 5908 5910 5911 5914 5916 5917 5919 5921 5924 5925 5927 5927 5929 5930 5929 5931 5929 5929 5926 5925 5925 5925 5924 5923 5923 5923 5922 5921 5920 5919 5920 5918 5917 5918 5919 5921 5921 5920 5919 5918 5918
5908 5909 5910 5911 5913 5916 5919 5920 5922 5924 5926 5927 5929 5930 5931 5931 5931 5932 5931 5930 5929 5927 5925 5926 5925 5925 5924 5924 5923 5924 5922 5922 5923 5922 5921 5921 5921 5922 5923 5922 5922 5921 5920
5908 5910 5911 5913 5915 5918 5921 5923 5925 5927 5929 5930 5931 5933 5933 5934 5933 5932 5932 5930 5929 5927 5927 5928 5926 5926 5926 5926 5925 5925 5925 5925 5925 5924 5924 5923 5924 5925 5925 5923 5921 5921 5921
5909 5910 5912 5914 5916 5919 5922 5925 5927 5930 5931 5932 5934 5937 5936 5935 5934 5933 5932 5932 5930 5928 5928 5928 5928 5927 5928 5929 5927 5927 5927 5928 5927 5928 5926 5925 5926 5926 5926 5925 5924 5924 5924
5908 5911 5913 5915 5917 5920 5923 5926 5928 5931 5933 5935 5938 5938 5937 5937 5936 5935 5935 5934 5932 5931 5930 5928 5928 5929 5928 5930 5930 5929 5930 5930 5930 5930 5929 5928 5928 5929 5927 5928 5927 5926 5925
5909 5911 5912 5916 5918 5921 5924 5927 5930 5932 5932 5937 5939 5939 5938 5939 5938 5937 5936 5935 5933 5931 5930 5928 5928 5928 5929 5930 5930 5930 5930 5931 5931 5931 5930 5930 5930 5930 5929 5929 5929 5928 5927
5908 5911 5912 5915 5919 5921 5925 5928 5930 5935 5936 5939 5939 5940 5940 5941 5940 5940 5938 5936 5934 5933 5932 5930 5931 5929 5929 5930 5930 5931 5931 5931 5931 5932 5932 5931 5931 5931 5930 5929 5929 5928 5928
5907 5909 5913 5915 5919 5921 5925 5928 5932 5935 5938 5940 5940 5941 5942 5941 5940 5940 5939 5938 5936 5936 5934 5934 5932 5932 5931 5930 5930 5933 5932 5932 5932 5933 5933 5933 5933 5932 5931 5931 5931 5930 5929
5905 5909 5912 5916 5919 5921 5925 5928 5932 5935 5937 5939 5941 5942 5942 5942 5941 5942 5941 5940 5940 5938 5938 5938 5936 5935 5934 5934 5934 5934 5935 5935 5934 5933 5934 5934 5934 5934 5933 5933 5934 5932 5930
5903 5907 5911 5915 5918 5920 5924 5928 5931 5934 5937 5938 5941 5942 5943 5944 5944 5943 5943 5942 5942 5941 5939 5939 5939 5938 5937 5937 5938 5936 5937 5939 5937 5937 5937 5937 5936 5936 5935 5935 5934 5932 5931
5902 5905 5909 5913 5916 5920 5924 5928 5931 5934 5937 5938 5940 5941 5943 5944 5944 5944 5944 5943 5942 5942 5942 5942 5942 5942 5941 5940 5939 5940 5939 5940 5939 5939 5939 5938 5938 5937 5936 5936 5935 5934 5933
5900 5906 5907 5911 5914 5919 5923 5926 5930 5933 5936 5938 5939 5941 5942 5944 5944 5945 5945 5945 5944 5944 5944 5945 5944 5943 5942 5941 5940 5941 5941 5940 5941 5941 5938 5937 5938 5938 5937 5936 5936 5936 5934
5897 5902 5906 5909 5913 5918 5922 5926 5929 5933 5936 5938 5939 5941 5943 5944 5945 5946 5946 5946 5945 5945 5946 5947 5946 5945 5943 5943 5942 5942 5942 5942 5941 5940 5939 5938 5939 5938 5938 5937 5938 5937 5936
5896 5897 5904 5909 5913 5917 5922 5925 5929 5932 5935 5938 5940 5942 5944 5945 5946 5947 5947 5947 5948 5948 5947 5947 5947 5946 5945 5945 5945 5943 5943 5942 5941 5939 5939 5938 5938 5938 5937 5939 5939 5938 5936